Regional Weather Roundup
Issued by NWS

Home | Current Version | Previous Version | Text Only | Print | Product List | Glossary On
Versions: 1 2 3 4 5 6 7 8 9 10 11 12 13 14 15 16 17 18 19 20 21 22 23 24 25 26 27 28
000
ASUS45 KTFX 192310
RWRMT
MONTANA REGIONAL WEATHER ROUNDUP
NATIONAL WEATHER SERVICE GREAT FALLS MT
500 PM MDT THU APR 19 2018

NOTE: "FAIR" INDICATES FEW OR NO CLOUDS BELOW 12000 FEET WITH NO
SIGNIFICANT WEATHER AND/OR OBSTRUCTIONS TO VISIBILITY.

MTZ001>007-043-200000-
WEST OF THE DIVIDE

CITY           SKY/WX    TMP DP  RH WIND       PRES   REMARKS
KALISPELL      FAIR      61  23  23 CALM      30.05F
MISSOULA       FAIR      62  24  23 N15       30.02F
BUTTE          CLOUDY    54  19  25 SE12      30.01S
MULLAN PASS    FAIR      48  15  26 N7        30.09S
ANACONDA         N/A     55  18  22 N10       30.01S
DEER LODGE       N/A     55  21  26 MISG      30.03F
HAMILTON         N/A     61  19  20 MISG      30.01S
RONAN            N/A     59  25  27 N7        30.08S
$$

MTZ008-052>055-200000-
SOUTHWEST MONTANA

CITY           SKY/WX    TMP DP  RH WIND       PRES   REMARKS
BOZEMAN        PTSUNNY   60  22  23 NE12      29.99F
DILLON         FAIR      56  20  24 NE9       29.96F
ENNIS          PTSUNNY   57  25  28 NE9G15    30.00S
W YELLOWSTONE  FAIR      46  19  34 NE13      29.94F
THREE FORKS      N/A     61  26  26 CALM      29.99F
$$

MTZ009-010-012-014-046-048-049-054-200000-
EAST SLOPES AND CENTRAL MONTANA

CITY           SKY/WX    TMP DP  RH WIND       PRES   REMARKS
CUT BANK       FAIR      55  25  31 VRB5      30.07S
GREAT FALLS    FAIR      60  28  29 VRB7      30.04F
HELENA         PTSUNNY   60  21  22 CALM      30.02S
AUGUSTA        FAIR      51  23  33 NE6       30.06F
BOWMANS CRNR   FAIR      53  22  30 CALM      30.04F
CHOTEAU          N/A     55  23  28 CALM      30.08F
FAIRFIELD      FAIR      56  23  27 CALM      30.06S
POWER          FAIR      56  27  32 N7        30.05F
RAYNESFORD     FAIR      58  19  22 NE14      30.02S
ULM            FAIR      58  25  28 NE5       30.04F
WHITE SULPHUR    N/A     55  23  28 SW7       30.01S
$$

MTZ011-013-016-021-045-047-050-051-200000-
NORTH CENTRAL MONTANA

CITY           SKY/WX    TMP DP  RH WIND       PRES   REMARKS
HAVRE          FAIR      57  38  48 E20G32    30.09F
LEWISTOWN      FAIR      59  25  27 E20G26    30.04F
N BAR RANCH    FAIR      57  23  26 E14       30.08S
CHINOOK          N/A     57  37  47 MISG      30.12S
GEYSER         FAIR      58  26  28 SE17G24   30.02S
GRASS RANGE    FAIR      57  30  35 E21       30.03S
STANFORD       FAIR      58  25  28 SE20      30.03F
$$

MTZ017>020-022>027-061-062-200000-
NORTHEAST MONTANA

CITY           SKY/WX    TMP DP  RH WIND       PRES   REMARKS
GLASGOW        FAIR      59  33  37 E25G32    30.16F
GLENDIVE       FAIR      59  25  27 E16       30.18F
JORDAN           N/A     61  30  31 E21G26    30.11F
MALTA          SUNNY     57  37  47 E15G25    30.12S
SIDNEY         FAIR      57  34  41 E14G21    30.24F
WOLF POINT     FAIR      59  34  39 E21       30.21F
PLENTYWOOD       N/A     48  36  61 MISG      30.28F
POPLAR           N/A     55  34  44 MISG      30.23F
SCOBEY           N/A     52  29  41 E13       30.22
$$

MTZ028>42-056>058-200000-
SOUTHCENTRAL AND SOUTHEAST MONTANA

CITY           SKY/WX    TMP DP  RH WIND       PRES   REMARKS
BAKER          FAIR      57  27  31 E22G32    30.18F
BILLINGS       PTSUNNY   61  29  29 E12G24    30.01F
LIVINGSTON     FAIR      59  28  30 NE22G29   29.98F
MILES CITY     FAIR      62  29  28 SE17G24   30.10S
BIG TIMBER     SUNNY     57  23  26 SE15      30.02F
FORSYTH          N/A     63  28  27 MISG      30.06S
HARLOWTON      FAIR      57  22  26 SE13      30.04S
LAUREL           N/A     63  25  23 E17       30.01S
$$

REGIONAL REPORTS...DAKOTAS

CITY           SKY/WX    TMP DP  RH WIND       PRES   REMARKS
WILLISTON      FAIR      53  35  50 E14       30.29F
MINOT          FAIR      47  35  63 S6        30.34F
DICKINSON      FAIR      57  28  33 E13       30.23F
BEACH          FAIR      57  23  26 SE20G25   30.24S
CROSBY         FAIR      48  34  57 SE13      30.33F
TIOGA          FAIR      45  41  87 E12       30.32F
WATFORD CITY   FAIR      52  37  58 E15       30.27F
BISMARCK       FAIR      55  33  43 E9        30.32F
GRAND FORKS    FAIR      53  35  50 SW16      30.37S
FARGO          FAIR      55  33  43 N10       30.38F
BUFFALO SD       N/A     55  29  36 SE20      30.12
RAPID CITY     FAIR      57  31  37 E20       30.16F
$$

REGIONAL REPORTS...WYOMING/IDAHO/WASHINGTON

CITY           SKY/WX    TMP DP  RH WIND       PRES   REMARKS
GILLETTE       FAIR      57  27  31 SE24G30   30.05F
SHERIDAN       FAIR      61  25  25 SE14G21   29.99F
BUFFALO WY     FAIR      58  24  27 S12       30.04F
CODY           FAIR      54  19  25 E7        30.01F
YELLOWSTONE LA   N/A     42  18  37 CALM      30.03S
IDAHO FALLS    PTSUNNY   62  20  19 N15       29.86F
SALMON         FAIR      62  22  21 SW7       29.93F
BOISE          FAIR      67  27  22 NW18G28   29.88F
SPOKANE        FAIR      61  24  24 VRB5      30.10F
$$

REGIONAL REPORTS...ALBERTA

CITY           SKY/WX    TMP DP  RH WIND       PRES   REMARKS
CALGARY        MOSUNNY   48  30  49 S16G23    30.04F
CARDSTON         N/A     57  28  33 SE5         N/A
EDMONTON       SUNNY     54  27  35 S17       30.04F
FORT MCMURRAY  SUNNY     57  23  26 SW15G24   29.97F
LETHBRIDGE     MOSUNNY   59  23  25 S13G20    30.05F
LLOYDMINSTER   MOSUNNY   52  36  54 SE16      30.12F
MEDICINE HAT   MOSUNNY   61  27  27 S15       30.08F
MILK RIVER       N/A     57  28  33 S13         N/A
PEACE RIVER    PTSUNNY   45  25  45 SW13      29.92F
PINCHER CREEK  PTSUNNY   54  28  37 S14       30.05F
WATERTON GATE    N/A     54  18  24 SW8         N/A
$$

REGIONAL REPORTS...SASKATCHEWAN

CITY           SKY/WX    TMP DP  RH WIND       PRES   REMARKS
CORONACH         N/A     50  34  53 E14G20      N/A
CYPRESS HILLS    N/A     46  28  49 SE12G17     N/A
ESTEVAN        PTSUNNY   50  23  34 E10G18    30.33F
MOOSE JAW        N/A     52  34  50 SE16        N/A
PRINCE ALBERT  MOSUNNY   43  30  61 S9        30.29S
REGINA         MOSUNNY   45  37  76 SE15      30.33F
ROCKGLEN         N/A     48  34  57 SE14G20     N/A
SASKATOON      MOSUNNY   54  30  40 S18G24    30.25F
SWIFT CURRENT  SUNNY     54  32  43 SE17G23   30.18F
VAL MARIE        N/A     55  34  44 SE18G26     N/A
$$




USA.gov is the U.S. government's official web portal to all federal, state and local government web resources and services.